| time (UTC) | temp C | wind direction | speed KPH | gust KPH | rain 1hr cm | rain 24hr cm | rain mn cm | humidity % | barometer mb |
| 20260505125030 | 15 | 166 | 0.0 | 4.8 | 0.00 | 0.00 | 0.00 | 78 | 1010.2 |
| 20260505124547 | 14 | 160 | 0.0 | 6.4 | 0.00 | 0.00 | 0.00 | 77 | 1010.3 |
| 20260505124033 | 14 | 152 | 1.6 | 6.4 | 0.00 | 0.00 | 0.00 | 78 | 1010.3 |
| 20260505123531 | 14 | 127 | 0.0 | 4.8 | 0.00 | 0.00 | 0.00 | 78 | 1010.2 |
| 20260505123043 | 13 | 159 | 1.6 | 4.8 | 0.00 | 0.00 | 0.00 | 80 | 1010.3 |
| 20260505122531 | 13 | 246 | 0.0 | 4.8 | 0.00 | 0.00 | 0.00 | 80 | 1010.2 |
| 20260505122030 | 13 | 0 | 1.6 | 3.2 | 0.00 | 0.00 | 0.00 | 81 | 1010.3 |
| 20260505121543 | 13 | 250 | 1.6 | 3.2 | 0.00 | 0.00 | 0.00 | 81 | 1010.1 |
| 20260505121030 | 12 | 139 | 0.0 | 3.2 | 0.00 | 0.00 | 0.00 | 83 | 1010.1 |
| 20260505120532 | 12 | 0 | 0.0 | 3.2 | 0.00 | 0.00 | 0.00 | 84 | 1010.3 |
| 20260505120038 | 12 | 0 | 0.0 | 1.6 | 0.00 | 0.00 | 0.00 | 85 | 1010.3 |
| 20260505115529 | 11 | 0 | 0.0 | 0.0 | 0.00 | 0.00 | 0.00 | 86 | 1010.3 |
| 20260505115030 | 11 | 0 | 0.0 | 1.6 | 0.00 | 0.00 | 0.00 | 88 | 1010.2 |
| 20260505114535 | 11 | 0 | 0.0 | 1.6 | 0.00 | 0.00 | 0.00 | 87 | 1010.2 |
| 20260505114030 | 11 | 0 | 0.0 | 1.6 | 0.00 | 0.00 | 0.00 | 87 | 1010.6 |
| 20260505113530 | 11 | 0 | 0.0 | 1.6 | 0.00 | 0.00 | 0.00 | 88 | 1010.6 |
| 20260505113044 | 10 | 0 | 0.0 | 1.6 | 0.00 | 0.00 | 0.00 | 89 | 1010.5 |
| 20260505112530 | 10 | 54 | 0.0 | 3.2 | 0.00 | 0.00 | 0.00 | 90 | 1010.3 |
| 20260505112030 | 10 | 0 | 0.0 | 3.2 | 0.00 | 0.00 | 0.00 | 90 | 1010.4 |
| 20260505111543 | 9 | 228 | 0.0 | 3.2 | 0.00 | 0.00 | 0.00 | 91 | 1010.6 |
| 20260505111030 | 9 | 0 | 0.0 | 3.2 | 0.00 | 0.00 | 0.00 | 92 | 1010.3 |
| 20260505110530 | 8 | 148 | 0.0 | 3.2 | 0.00 | 0.00 | 0.00 | 93 | 1010.2 |
| 20260505102030 | 6 | 0 | 0.0 | 0.0 | 0.00 | 0.00 | 0.00 | 93 | 1009.7 |
| 20260505101550 | 6 | 0 | 0.0 | 0.0 | 0.00 | 0.00 | 0.00 | 92 | 1009.6 |
| 20260505101030 | 6 | 0 | 0.0 | 0.0 | 0.00 | 0.00 | 0.00 | 93 | 1009.7 |
| 20260505100530 | 6 | 0 | 0.0 | 0.0 | 0.00 | 0.00 | 0.00 | 92 | 1009.7 |
| 20260505100045 | 6 | 0 | 0.0 | 0.0 | 0.00 | 0.00 | 0.00 | 93 | 1009.5 |
| 20260505095530 | 6 | 0 | 0.0 | 0.0 | 0.00 | 0.00 | 0.00 | 92 | 1009.4 |
| 20260505095030 | 6 | 0 | 0.0 | 0.0 | 0.00 | 0.00 | 0.00 | 92 | 1009.7 |
| 20260505094547 | 7 | 0 | 0.0 | 0.0 | 0.00 | 0.00 | 0.00 | 92 | 1009.5 |
| 20260505094030 | 7 | 0 | 0.0 | 0.0 | 0.00 | 0.00 | 0.00 | 91 | 1009.6 |
| 20260505093530 | 7 | 0 | 0.0 | 0.0 | 0.00 | 0.00 | 0.00 | 91 | 1009.5 |
| 20260505093043 | 7 | 0 | 0.0 | 0.0 | 0.00 | 0.00 | 0.00 | 91 | 1009.5 |
| 20260505092529 | 7 | 0 | 0.0 | 0.0 | 0.00 | 0.00 | 0.00 | 91 | 1009.5 |
| 20260505092030 | 7 | 0 | 0.0 | 0.0 | 0.00 | 0.00 | 0.00 | 91 | 1009.6 |
| 20260505091540 | 7 | 0 | 0.0 | 0.0 | 0.00 | 0.00 | 0.00 | 91 | 1009.4 |
| 20260505091029 | 7 | 0 | 0.0 | 0.0 | 0.00 | 0.00 | 0.00 | 91 | 1009.4 |
| 20260505090530 | 7 | 0 | 0.0 | 0.0 | 0.00 | 0.00 | 0.00 | 91 | 1009.5 |
| 20260505090048 | 7 | 0 | 0.0 | 0.0 | 0.00 | 0.00 | 0.00 | 91 | 1009.6 |
| 20260505085530 | 7 | 0 | 0.0 | 0.0 | 0.00 | 0.00 | 0.00 | 92 | 1009.6 |
| 20260505085030 | 7 | 0 | 0.0 | 0.0 | 0.00 | 0.00 | 0.00 | 92 | 1009.7 |
| 20260505084552 | 7 | 0 | 0.0 | 0.0 | 0.00 | 0.00 | 0.00 | 93 | 1009.7 |
| 20260505084030 | 7 | 0 | 0.0 | 0.0 | 0.00 | 0.00 | 0.00 | 93 | 1009.7 |
| 20260505083529 | 7 | 0 | 0.0 | 0.0 | 0.00 | 0.00 | 0.00 | 91 | 1009.8 |
| 20260505083055 | 7 | 0 | 0.0 | 0.0 | 0.00 | 0.00 | 0.00 | 90 | 1009.9 |
| 20260505082529 | 7 | 0 | 0.0 | 0.0 | 0.00 | 0.00 | 0.00 | 90 | 1009.8 |
| 20260505082155 | 7 | 0 | 0.0 | 0.0 | 0.00 | 0.00 | 0.00 | 89 | 1009.8 |
| 20260505081547 | 8 | 0 | 0.0 | 0.0 | 0.00 | 0.00 | 0.00 | 90 | 1009.8 |
| 20260505081030 | 8 | 0 | 0.0 | 0.0 | 0.00 | 0.00 | 0.00 | 91 | 1009.8 |
| 20260505080530 | 7 | 0 | 0.0 | 0.0 | 0.00 | 0.00 | 0.00 | 91 | 1009.8 |
| 20260505080048 | 7 | 0 | 0.0 | 0.0 | 0.00 | 0.00 | 0.00 | 92 | 1009.8 |
| 20260505075529 | 7 | 0 | 0.0 | 0.0 | 0.00 | 0.00 | 0.00 | 92 | 1009.8 |
| 20260505075030 | 7 | 0 | 0.0 | 0.0 | 0.00 | 0.00 | 0.00 | 92 | 1010.0 |
| 20260505074539 | 7 | 0 | 0.0 | 0.0 | 0.00 | 0.00 | 0.00 | 92 | 1010.1 |
| 20260505074030 | 7 | 0 | 0.0 | 0.0 | 0.00 | 0.00 | 0.00 | 92 | 1010.0 |
| 20260505073530 | 7 | 0 | 0.0 | 0.0 | 0.00 | 0.00 | 0.00 | 91 | 1010.0 |
| 20260505073046 | 7 | 0 | 0.0 | 0.0 | 0.00 | 0.00 | 0.00 | 91 | 1009.9 |
| 20260505072530 | 7 | 0 | 0.0 | 0.0 | 0.00 | 0.00 | 0.00 | 91 | 1009.8 |
| 20260505072029 | 7 | 0 | 0.0 | 0.0 | 0.00 | 0.00 | 0.00 | 91 | 1010.0 |
| 20260505071547 | 7 | 0 | 0.0 | 0.0 | 0.00 | 0.00 | 0.00 | 91 | 1010.1 |
| 20260505071032 | 7 | 0 | 0.0 | 0.0 | 0.00 | 0.00 | 0.00 | 91 | 1010.1 |
| 20260505070530 | 7 | 0 | 0.0 | 0.0 | 0.00 | 0.00 | 0.00 | 91 | 1010.1 |
| 20260505070041 | 7 | 0 | 0.0 | 0.0 | 0.00 | 0.00 | 0.00 | 91 | 1010.1 |
| 20260505065833 | 7 | 0 | 0.0 | 0.0 | 0.00 | 0.00 | 0.00 | 90 | 1010.0 |
| 20260505065029 | 7 | 0 | 0.0 | 0.0 | 0.00 | 0.00 | 0.00 | 90 | 1010.1 |
| 20260505064543 | 7 | 0 | 0.0 | 0.0 | 0.00 | 0.00 | 0.00 | 89 | 1010.2 |
| 20260505064031 | 7 | 0 | 0.0 | 0.0 | 0.00 | 0.00 | 0.00 | 89 | 1010.0 |
| 20260505063530 | 7 | 0 | 0.0 | 0.0 | 0.00 | 0.00 | 0.00 | 89 | 1010.1 |
| 20260505063042 | 7 | 0 | 0.0 | 0.0 | 0.00 | 0.00 | 0.00 | 88 | 1010.1 |
| 20260505062530 | 7 | 0 | 0.0 | 0.0 | 0.00 | 0.00 | 0.00 | 88 | 1010.3 |
| 20260505062030 | 7 | 0 | 0.0 | 0.0 | 0.00 | 0.00 | 0.00 | 86 | 1010.2 |
| 20260505061539 | 8 | 0 | 0.0 | 0.0 | 0.00 | 0.00 | 0.00 | 85 | 1010.3 |
| 20260505061030 | 8 | 0 | 0.0 | 0.0 | 0.00 | 0.00 | 0.00 | 86 | 1010.2 |
| 20260505060530 | 8 | 0 | 0.0 | 0.0 | 0.00 | 0.00 | 0.00 | 86 | 1010.3 |
| 20260505060049 | 8 | 0 | 0.0 | 0.0 | 0.00 | 0.00 | 0.00 | 85 | 1010.2 |
| 20260505055530 | 8 | 0 | 0.0 | 0.0 | 0.00 | 0.00 | 0.00 | 85 | 1010.3 |
| 20260505055030 | 8 | 0 | 0.0 | 0.0 | 0.00 | 0.00 | 0.00 | 84 | 1010.2 |
| 20260505054541 | 9 | 0 | 0.0 | 0.0 | 0.00 | 0.00 | 0.00 | 83 | 1010.3 |
| 20260505054029 | 9 | 0 | 0.0 | 0.0 | 0.00 | 0.00 | 0.00 | 83 | 1010.3 |
| 20260505053532 | 10 | 0 | 0.0 | 0.0 | 0.00 | 0.00 | 0.00 | 82 | 1010.4 |
| 20260505053038 | 10 | 0 | 0.0 | 0.0 | 0.00 | 0.00 | 0.00 | 81 | 1010.4 |
| 20260505052529 | 10 | 0 | 0.0 | 0.0 | 0.00 | 0.00 | 0.00 | 81 | 1010.4 |
| 20260505052029 | 10 | 0 | 0.0 | 0.0 | 0.00 | 0.00 | 0.00 | 80 | 1010.4 |
| 20260505051541 | 10 | 0 | 0.0 | 0.0 | 0.00 | 0.00 | 0.00 | 80 | 1010.6 |
| 20260505051030 | 10 | 0 | 0.0 | 0.0 | 0.00 | 0.00 | 0.00 | 79 | 1010.6 |
| 20260505050531 | 10 | 0 | 0.0 | 0.0 | 0.00 | 0.00 | 0.00 | 79 | 1010.6 |
| 20260505041535 | 11 | 0 | 0.0 | 0.0 | 0.00 | 0.00 | 0.00 | 74 | 1010.4 |
| 20260505041030 | 11 | 0 | 0.0 | 0.0 | 0.00 | 0.00 | 0.00 | 74 | 1010.5 |
| 20260505040530 | 11 | 0 | 0.0 | 0.0 | 0.00 | 0.00 | 0.00 | 73 | 1010.5 |
| 20260505040044 | 12 | 0 | 0.0 | 0.0 | 0.00 | 0.00 | 0.00 | 72 | 1010.4 |
| 20260505035531 | 12 | 0 | 0.0 | 0.0 | 0.00 | 0.00 | 0.00 | 72 | 1010.4 |
| 20260505035026 | 12 | 0 | 0.0 | 0.0 | 0.00 | 0.00 | 0.00 | 72 | 1010.4 |
| 20260505034540 | 12 | 0 | 0.0 | 0.0 | 0.00 | 0.00 | 0.00 | 71 | 1010.3 |
| 20260505034030 | 12 | 0 | 0.0 | 0.0 | 0.00 | 0.00 | 0.00 | 71 | 1010.3 |
| 20260505033530 | 12 | 0 | 0.0 | 0.0 | 0.00 | 0.00 | 0.00 | 71 | 1010.3 |
| 20260505033046 | 12 | 0 | 0.0 | 0.0 | 0.00 | 0.00 | 0.00 | 70 | 1010.3 |
| 20260505032535 | 12 | 0 | 0.0 | 0.0 | 0.00 | 0.00 | 0.00 | 70 | 1010.2 |
| 20260505032031 | 12 | 0 | 0.0 | 0.0 | 0.00 | 0.00 | 0.00 | 70 | 1010.2 |
| 20260505031551 | 12 | 0 | 0.0 | 0.0 | 0.00 | 0.00 | 0.00 | 69 | 1010.3 |
| 20260505031029 | 12 | 0 | 0.0 | 0.0 | 0.00 | 0.00 | 0.00 | 69 | 1010.3 |
| 20260505030530 | 12 | 0 | 0.0 | 0.0 | 0.00 | 0.00 | 0.00 | 69 | 1010.2 |
| 20260505030047 | 12 | 0 | 0.0 | 3.2 | 0.00 | 0.00 | 0.00 | 68 | 1010.2 |
| 20260505025531 | 13 | 0 | 0.0 | 3.2 | 0.00 | 0.00 | 0.00 | 68 | 1010.1 |
| 20260505025030 | 13 | 148 | 1.6 | 3.2 | 0.00 | 0.00 | 0.00 | 67 | 1010.1 |
| 20260505024550 | 13 | 157 | 1.6 | 4.8 | 0.00 | 0.00 | 0.00 | 67 | 1010.1 |
| 20260505024033 | 13 | 151 | 0.0 | 4.8 | 0.00 | 0.00 | 0.00 | 67 | 1010.1 |
| 20260505023529 | 13 | 118 | 1.6 | 4.8 | 0.00 | 0.00 | 0.00 | 66 | 1010.0 |
| 20260505023046 | 13 | 203 | 1.6 | 4.8 | 0.00 | 0.00 | 0.00 | 66 | 1010.0 |
| 20260505022529 | 13 | 150 | 1.6 | 4.8 | 0.00 | 0.00 | 0.00 | 66 | 1010.0 |
| 20260505022030 | 13 | 155 | 1.6 | 6.4 | 0.00 | 0.00 | 0.00 | 65 | 1010.1 |
| 20260505021541 | 13 | 131 | 1.6 | 6.4 | 0.00 | 0.00 | 0.00 | 65 | 1010.0 |
| 20260505021030 | 13 | 145 | 1.6 | 6.4 | 0.00 | 0.00 | 0.00 | 65 | 1010.0 |
| 20260505020530 | 14 | 172 | 1.6 | 6.4 | 0.00 | 0.00 | 0.00 | 64 | 1010.0 |
| 20260505020038 | 14 | 223 | 1.6 | 4.8 | 0.00 | 0.00 | 0.00 | 64 | 1009.9 |
| 20260505015530 | 14 | 141 | 1.6 | 4.8 | 0.00 | 0.00 | 0.00 | 63 | 1009.9 |
| 20260505015030 | 14 | 158 | 1.6 | 6.4 | 0.00 | 0.00 | 0.00 | 63 | 1009.9 |
| 20260505014601 | 14 | 136 | 1.6 | 6.4 | 0.00 | 0.00 | 0.00 | 63 | 1009.8 |
| 20260505014029 | 15 | 148 | 1.6 | 4.8 | 0.00 | 0.00 | 0.00 | 62 | 1009.8 |
| 20260505013529 | 15 | 153 | 0.0 | 3.2 | 0.00 | 0.00 | 0.00 | 62 | 1009.8 |
| 20260505013044 | 15 | 137 | 0.0 | 3.2 | 0.00 | 0.00 | 0.00 | 61 | 1009.9 |
| 20260505012529 | 15 | 158 | 1.6 | 3.2 | 0.00 | 0.00 | 0.00 | 60 | 1009.8 |
| 20260505012029 | 15 | 149 | 0.0 | 3.2 | 0.00 | 0.00 | 0.00 | 60 | 1009.7 |
| 20260505011549 | 15 | 149 | 1.6 | 3.2 | 0.00 | 0.00 | 0.00 | 59 | 1009.6 |
| 20260505011030 | 15 | 0 | 0.0 | 1.6 | 0.00 | 0.00 | 0.00 | 58 | 1009.6 |
| 20260505010530 | 15 | 150 | 0.0 | 3.2 | 0.00 | 0.00 | 0.00 | 58 | 1009.5 |
| 20260505010041 | 16 | 158 | 1.6 | 3.2 | 0.00 | 0.00 | 0.00 | 57 | 1009.3 |
| 20260505005530 | 16 | 149 | 1.6 | 3.2 | 0.00 | 0.00 | 0.00 | 57 | 1009.3 |
| 20260505005030 | 16 | 154 | 1.6 | 9.7 | 0.00 | 0.00 | 0.00 | 57 | 1009.2 |
| 20260505004539 | 16 | 163 | 1.6 | 9.7 | 0.00 | 0.00 | 0.00 | 56 | 1009.1 |
| 20260505004029 | 16 | 148 | 3.2 | 9.7 | 0.00 | 0.00 | 0.00 | 55 | 1009.1 |
| 20260505003532 | 16 | 135 | 1.6 | 9.7 | 0.00 | 0.00 | 0.00 | 56 | 1009.0 |
| 20260505003040 | 16 | 157 | 1.6 | 9.7 | 0.00 | 0.00 | 0.00 | 55 | 1008.9 |
| 20260505002529 | 16 | 146 | 1.6 | 6.4 | 0.00 | 0.00 | 0.00 | 55 | 1008.8 |
| 20260505002030 | 16 | 137 | 1.6 | 9.7 | 0.00 | 0.00 | 0.00 | 54 | 1008.8 |
| 20260505001545 | 17 | 171 | 1.6 | 9.7 | 0.00 | 0.00 | 0.00 | 54 | 1008.7 |
| 20260505001029 | 17 | 160 | 3.2 | 9.7 | 0.00 | 0.00 | 0.00 | 52 | 1008.3 |
| 20260505000529 | 17 | 159 | 3.2 | 9.7 | 0.00 | 0.00 | 0.00 | 52 | 1008.4 |
| 20260505000047 | 17 | 140 | 3.2 | 9.7 | 0.00 | 0.00 | 0.00 | 52 | 1008.4 |
| 20260504235530 | 17 | 151 | 1.6 | 9.7 | 0.00 | 0.00 | 0.00 | 52 | 1008.2 |
| 20260504235030 | 17 | 154 | 3.2 | 9.7 | 0.00 | 0.00 | 0.00 | 51 | 1008.2 |
| 20260504234541 | 18 | 147 | 3.2 | 8.0 | 0.00 | 0.00 | 0.00 | 50 | 1008.0 |
| 20260504234030 | 18 | 160 | 3.2 | 8.0 | 0.00 | 0.00 | 0.00 | 49 | 1007.9 |
| 20260504233531 | 18 | 176 | 3.2 | 8.0 | 0.00 | 0.00 | 0.00 | 47 | 1007.9 |
| 20260504233040 | 19 | 148 | 4.8 | 8.0 | 0.00 | 0.00 | 0.00 | 45 | 1007.9 |
| 20260504232533 | 20 | 209 | 1.6 | 6.4 | 0.00 | 0.00 | 0.00 | 42 | 1007.6 |
| 20260504232030 | 20 | 0 | 0.0 | 6.4 | 0.00 | 0.00 | 0.00 | 39 | 1007.6 |
| 20260504231535 | 20 | 149 | 1.6 | 6.4 | 0.00 | 0.00 | 0.00 | 38 | 1007.4 |
| 20260504231029 | 20 | 200 | 1.6 | 12.9 | 0.00 | 0.00 | 0.00 | 38 | 1007.2 |
| 20260504230529 | 20 | 122 | 3.2 | 12.9 | 0.00 | 0.00 | 0.00 | 37 | 1007.2 |
| 20260504230046 | 20 | 136 | 1.6 | 6.4 | 0.00 | 0.00 | 0.00 | 37 | 1007.2 |
| 20260504225530 | 21 | 169 | 3.2 | 6.4 | 0.00 | 0.00 | 0.00 | 36 | 1007.2 |
| 20260504225032 | 21 | 153 | 1.6 | 6.4 | 0.00 | 0.00 | 0.00 | 37 | 1007.3 |
| 20260504224546 | 21 | 194 | 1.6 | 4.8 | 0.00 | 0.00 | 0.00 | 37 | 1007.3 |
| 20260504224030 | 21 | 283 | 1.6 | 8.0 | 0.00 | 0.00 | 0.00 | 35 | 1007.2 |
| 20260504223530 | 22 | 154 | 1.6 | 11.3 | 0.00 | 0.00 | 0.00 | 37 | 1007.1 |
| 20260504223039 | 22 | 212 | 1.6 | 11.3 | 0.00 | 0.00 | 0.00 | 35 | 1007.1 |
| 20260504222529 | 22 | 131 | 3.2 | 9.7 | 0.00 | 0.00 | 0.00 | 36 | 1007.2 |
| 20260504222032 | 22 | 164 | 3.2 | 9.7 | 0.00 | 0.00 | 0.00 | 35 | 1007.3 |
| 20260504221535 | 22 | 181 | 3.2 | 9.7 | 0.00 | 0.00 | 0.00 | 34 | 1007.2 |
| 20260504221029 | 22 | 220 | 3.2 | 9.7 | 0.00 | 0.00 | 0.00 | 35 | 1007.4 |
| 20260504220530 | 22 | 24 | 3.2 | 12.9 | 0.00 | 0.00 | 0.00 | 34 | 1007.3 |
| 20260504220042 | 22 | 131 | 4.8 | 17.7 | 0.00 | 0.00 | 0.00 | 35 | 1007.4 |
| 20260504215530 | 22 | 172 | 6.4 | 17.7 | 0.00 | 0.00 | 0.00 | 33 | 1007.5 |
| 20260504215032 | 22 | 145 | 3.2 | 9.7 | 0.00 | 0.00 | 0.00 | 34 | 1007.4 |
| 20260504214552 | 22 | 200 | 3.2 | 11.3 | 0.00 | 0.00 | 0.00 | 34 | 1007.3 |
| 20260504214032 | 22 | 294 | 3.2 | 11.3 | 0.00 | 0.00 | 0.00 | 36 | 1007.4 |
| 20260504213529 | 22 | 323 | 4.8 | 11.3 | 0.00 | 0.00 | 0.00 | 36 | 1007.6 |
| 20260504213036 | 21 | 0 | 1.6 | 17.7 | 0.00 | 0.00 | 0.00 | 37 | 1007.5 |
| 20260504212529 | 21 | 291 | 4.8 | 17.7 | 0.00 | 0.00 | 0.00 | 34 | 1007.5 |
| 20260504212032 | 22 | 212 | 3.2 | 17.7 | 0.00 | 0.00 | 0.00 | 37 | 1007.3 |
| 20260504211547 | 22 | 196 | 6.4 | 17.7 | 0.00 | 0.00 | 0.00 | 35 | 1007.6 |
| 20260504211031 | 22 | 210 | 4.8 | 17.7 | 0.00 | 0.00 | 0.00 | 34 | 1007.5 |
| 20260504210530 | 22 | 262 | 4.8 | 17.7 | 0.00 | 0.00 | 0.00 | 34 | 1007.5 |
| 20260504210057 | 22 | 135 | 1.6 | 11.3 | 0.00 | 0.00 | 0.00 | 35 | 1007.5 |
| 20260504205529 | 22 | 214 | 4.8 | 14.5 | 0.00 | 0.00 | 0.00 | 36 | 1007.4 |
| 20260504205029 | 22 | 215 | 3.2 | 14.5 | 0.00 | 0.00 | 0.00 | 39 | 1007.5 |
| 20260504204558 | 22 | 234 | 4.8 | 12.9 | 0.00 | 0.00 | 0.00 | 37 | 1007.5 |
| 20260504204029 | 21 | 131 | 4.8 | 17.7 | 0.00 | 0.00 | 0.00 | 38 | 1007.5 |
| 20260504203529 | 21 | 228 | 8.0 | 17.7 | 0.00 | 0.00 | 0.00 | 36 | 1007.5 |
| 20260504203049 | 22 | 268 | 4.8 | 12.9 | 0.00 | 0.00 | 0.00 | 37 | 1007.4 |
| 20260504202529 | 22 | 188 | 6.4 | 12.9 | 0.00 | 0.00 | 0.00 | 37 | 1007.4 |
| 20260504202028 | 21 | 153 | 6.4 | 12.9 | 0.00 | 0.00 | 0.00 | 37 | 1007.5 |
| 20260504201539 | 21 | 207 | 3.2 | 19.3 | 0.00 | 0.00 | 0.00 | 35 | 1007.5 |
| 20260504201029 | 21 | 239 | 4.8 | 19.3 | 0.00 | 0.00 | 0.00 | 35 | 1007.5 |
| 20260504200529 | 21 | 281 | 3.2 | 12.9 | 0.00 | 0.00 | 0.00 | 37 | 1007.6 |
| 20260504200047 | 22 | 309 | 3.2 | 11.3 | 0.00 | 0.00 | 0.00 | 37 | 1007.6 |
| 20260504195529 | 22 | 280 | 4.8 | 9.7 | 0.00 | 0.00 | 0.00 | 35 | 1007.7 |
| 20260504195029 | 22 | 234 | 3.2 | 14.5 | 0.00 | 0.00 | 0.00 | 34 | 1007.7 |
| 20260504194545 | 22 | 147 | 4.8 | 17.7 | 0.00 | 0.00 | 0.00 | 35 | 1007.6 |
| 20260504194030 | 22 | 222 | 6.4 | 17.7 | 0.00 | 0.00 | 0.00 | 34 | 1007.6 |
| 20260504193530 | 22 | 210 | 3.2 | 12.9 | 0.00 | 0.00 | 0.00 | 35 | 1007.6 |
| 20260504193044 | 22 | 133 | 3.2 | 12.9 | 0.00 | 0.00 | 0.00 | 36 | 1007.6 |
| 20260504192529 | 22 | 20 | 3.2 | 20.9 | 0.00 | 0.00 | 0.00 | 38 | 1007.7 |
| 20260504192029 | 22 | 140 | 4.8 | 20.9 | 0.00 | 0.00 | 0.00 | 34 | 1007.5 |
| 20260504191542 | 22 | 205 | 11.3 | 20.9 | 0.00 | 0.00 | 0.00 | 36 | 1007.6 |
| 20260504191031 | 22 | 156 | 6.4 | 12.9 | 0.00 | 0.00 | 0.00 | 38 | 1007.8 |
| 20260504190530 | 22 | 205 | 3.2 | 8.0 | 0.00 | 0.00 | 0.00 | 37 | 1007.7 |
| 20260504190038 | 21 | 92 | 3.2 | 11.3 | 0.00 | 0.00 | 0.00 | 38 | 1007.9 |
| 20260504185529 | 21 | 219 | 4.8 | 12.9 | 0.00 | 0.00 | 0.00 | 38 | 1007.8 |
| 20260504185032 | 22 | 187 | 4.8 | 12.9 | 0.00 | 0.00 | 0.00 | 34 | 1008.0 |
| 20260504184537 | 21 | 299 | 1.6 | 20.9 | 0.00 | 0.00 | 0.00 | 38 | 1007.9 |
| 20260504184029 | 21 | 332 | 6.4 | 20.9 | 0.00 | 0.00 | 0.00 | 37 | 1008.1 |
| 20260504183530 | 21 | 221 | 6.4 | 20.9 | 0.00 | 0.00 | 0.00 | 38 | 1008.0 |
| 20260504183045 | 21 | 354 | 4.8 | 17.7 | 0.00 | 0.00 | 0.00 | 38 | 1008.1 |
| 20260504182529 | 22 | 145 | 4.8 | 24.1 | 0.00 | 0.00 | 0.00 | 34 | 1008.2 |
| 20260504182029 | 21 | 295 | 4.8 | 24.1 | 0.00 | 0.00 | 0.00 | 36 | 1008.1 |
| 20260504181540 | 22 | 342 | 3.2 | 20.9 | 0.00 | 0.00 | 0.00 | 38 | 1008.2 |
| 20260504181029 | 21 | 227 | 4.8 | 16.1 | 0.00 | 0.00 | 0.00 | 37 | 1008.3 |
| 20260504180530 | 21 | 357 | 4.8 | 27.4 | 0.00 | 0.00 | 0.00 | 39 | 1008.5 |
| 20260504180043 | 21 | 223 | 4.8 | 27.4 | 0.00 | 0.00 | 0.00 | 36 | 1008.4 |
| 20260504175531 | 21 | 312 | 6.4 | 19.3 | 0.00 | 0.00 | 0.00 | 35 | 1008.4 |
| 20260504175030 | 21 | 227 | 6.4 | 19.3 | 0.00 | 0.00 | 0.00 | 35 | 1008.3 |
| 20260504174538 | 21 | 20 | 4.8 | 19.3 | 0.00 | 0.00 | 0.00 | 40 | 1008.5 |
| 20260504174026 | 21 | 125 | 4.8 | 17.7 | 0.00 | 0.00 | 0.00 | 40 | 1008.5 |
| 20260504173529 | 21 | 330 | 6.4 | 16.1 | 0.00 | 0.00 | 0.00 | 34 | 1008.6 |
| 20260504173058 | 21 | 300 | 8.0 | 14.5 | 0.00 | 0.00 | 0.00 | 37 | 1008.6 |
| 20260504172529 | 21 | 292 | 1.6 | 12.9 | 0.00 | 0.00 | 0.00 | 38 | 1008.5 |
| 20260504172029 | 21 | 360 | 1.6 | 27.4 | 0.00 | 0.00 | 0.00 | 37 | 1008.7 |
| 20260504171542 | 20 | 90 | 6.4 | 27.4 | 0.00 | 0.00 | 0.00 | 35 | 1008.6 |
| 20260504171031 | 21 | 281 | 4.8 | 27.4 | 0.00 | 0.00 | 0.00 | 38 | 1008.7 |
| 20260504170526 | 20 | 179 | 6.4 | 17.7 | 0.00 | 0.00 | 0.00 | 38 | 1008.7 |
| 20260504151026 | 17 | 171 | 4.8 | 22.5 | 0.00 | 0.00 | 0.00 | 38 | 1009.9 |
| 20260504150526 | 17 | 289 | 8.0 | 22.5 | 0.00 | 0.00 | 0.00 | 40 | 1010.0 |
| 20260504141029 | 16 | 203 | 3.2 | 9.7 | 0.00 | 0.00 | 0.00 | 43 | 1010.8 |
| 20260504140529 | 16 | 220 | 1.6 | 17.7 | 0.00 | 0.00 | 0.00 | 42 | 1010.8 |
| 20260504130530 | 15 | 107 | 1.6 | 11.3 | 0.00 | 0.00 | 0.00 | 52 | 1010.7 |